Location: Boiro
(42.6475°N, 8.8834°W)
Time: 18:43:35
(UTC+01:00)

Tiros 1 despin weight - Pass Details

Date: 02 December 2021
Orbit: 592 x 641 km, 48.2° (Epoch: 20 January)

Event Time Altitude Azimuth Distance (km) Brightness Sun altitude
Rises 15:46:18 0° 244° (WSW) 2,827 ? 17.6°
Reaches altitude 10° 15:48:35 10° 245° (WSW) 1,923 ? 17.3°
Maximum altitude 15:52:59 86° 333° (NNW) 598 ? 16.9°
Drops below altitude 10° 15:57:24 10° 64° (ENE) 1,922 ? 16.4°
Sets 15:59:41 0° 65° (ENE) 2,827 ? 16.1°
